Location: Easthampton
(42.2676°N, 72.6690°W)
Time: 05:40:55
(UTC+00:00)

BlueWalker 3 - Pass Details

Date: 12 December 2022
Orbit: 499 x 517 km, 53.2° (Epoch: 05 February)

Event Time Altitude Azimuth Distance (km) Brightness Sun altitude
Rises 22:38:20 0° 303° (WNW) 2,625 6.2 -14.2°
Reaches altitude 10° 22:40:36 10° 297° (WNW) 1,732 5.3 -14.6°
Maximum altitude 22:44:21 46° 224° (SW) 690 3.0 -15.3°
Drops below altitude 10° 22:48:04 10° 150° (SSE) 1,709 4.5 -15.9°
Enters shadow 22:50:15 - 145° (SE) 2,568 5.3 -16.3°
